Bradford, PA

10:06 AM EST on December 06, 2019 (GMT -0500)
Bradford Regional

Weather History for KBFD - August, 2019

Change the Weather History Date:

Saturday, August 10, 2019

  Actual Average Record
Temperature  
Mean Temperature 61 °F 65 °F  
Max Temperature 72 °F 76 °F 85 °F (1975)
Min Temperature 49 °F 53 °F 40 °F (1964)
Degree Days  
Heating Degree Days 4 1  
Month to date heating degree days 5 2  
Since 1 June heating degree days 139 211  
Since 1 July heating degree days 17 66  
Cooling Degree Days 0 2  
Month to date cooling degree days 22 20  
Year to date cooling degree days 212 144  
Since 1 June cooling degree days 205 134  
Growing Degree Days 10 (Base 50)    
Moisture  
Dew Point 51 °F    
Average Humidity 72    
Maximum Humidity 100    
Minimum Humidity 44    
Precipitation  
Precipitation 0.00 in 0.14 in 2.48 in (2016)
Month to date precipitation 1.77 1.36  
Year to date precipitation 29.74 27.20  
Sea Level Pressure  
Sea Level Pressure 29.96 in    
Wind  
Wind Speed 7 mph (WNW)    
Max Wind Speed 20 mph    
Max Gust Speed 27 mph    
Visibility 9 miles    
Events      
T = Trace of Precipitation, MM = Missing Value Source: NWS Daily Summary

Daily Weather History Graph

Daily Weather History Graph

Search for Another Location

Airport or City:

Astronomy

Aug. 10, 2019 Rise Set
Actual Time 6:17 AM EDT 8:21 PM EDT
Civil Twilight 5:46 AM EDT 8:52 PM EDT
Nautical Twilight 5:09 AM EDT 9:29 PM EDT
Astronomical Twilight 4:28 AM EDT 10:10 PM EDT
Moon 5:04 PM EDT (8/10) 1:51 AM EDT (8/10)
Length of Visible Light 15h 05m
Length of Day
14h 04m
Waxing Gibbous, 79% of the Moon is Illuminated
Aug 10
Waxing Gibbous
Aug 15
Full
Aug 23
Last Quarter
Aug 30
New
Sep 5
First Quarter

Hourly Weather History & Observations

Time (EDT) Temp. Dew Point Humidity Pressure Visibility Wind Dir Wind Speed Gust Speed Precip Events Conditions
12:53 AM 59.0 °F 53.1 °F 81% 29.89 in 10.0 mi WSW 5.8 mph - N/A   Clear
1:53 AM 59.0 °F 53.1 °F 81% 29.89 in 10.0 mi West 3.5 mph - N/A   Mostly Cloudy
2:53 AM 57.0 °F 53.1 °F 87% 29.90 in 10.0 mi Calm Calm - N/A   Mostly Cloudy
3:53 AM 55.0 °F 52.0 °F 89% 29.91 in 10.0 mi Calm Calm - N/A   Clear
4:37 AM 52.0 °F 51.1 °F 97% 29.94 in 1.8 mi Calm Calm - N/A   Clear
4:53 AM 51.1 °F 51.1 °F 100% 29.92 in 1.0 mi Calm Calm - N/A   Clear
5:28 AM 50.0 °F 48.9 °F 96% 29.94 in 3.0 mi Calm Calm - N/A   Clear
5:53 AM 51.1 °F 50.0 °F 96% 29.92 in 10.0 mi Calm Calm - N/A   Clear
6:22 AM 48.9 °F 48.0 °F 97% 29.95 in 2.0 mi Calm Calm - N/A   Clear
6:31 AM 48.9 °F 48.0 °F 97% 29.95 in 9.0 mi Calm Calm - N/A   Clear
6:53 AM 48.9 °F 48.0 °F 97% 29.94 in 5.0 mi Calm Calm - N/A   Clear
7:53 AM 57.9 °F 55.0 °F 90% 29.94 in 10.0 mi West 4.6 mph - N/A   Clear
8:53 AM 62.1 °F 54.0 °F 75% 29.94 in 10.0 mi West 10.4 mph - N/A   Clear
9:53 AM 64.0 °F 52.0 °F 65% 29.96 in 10.0 mi WNW 13.8 mph - N/A   Scattered Clouds
10:14 AM 64.9 °F 53.1 °F 65% 29.99 in 10.0 mi WNW 10.4 mph - N/A   Mostly Cloudy
10:53 AM 64.9 °F 52.0 °F 63% 29.97 in 10.0 mi NW 17.3 mph 27.6 mph N/A   Mostly Cloudy
11:00 AM 64.9 °F 52.0 °F 63% 30.00 in 10.0 mi WNW 12.7 mph 27.6 mph N/A   Mostly Cloudy
11:53 AM 66.9 °F 52.0 °F 59% 29.96 in 10.0 mi WNW 11.5 mph 20.7 mph N/A   Mostly Cloudy
12:53 PM 68.0 °F 52.0 °F 56% 29.96 in 10.0 mi NNW 13.8 mph 18.4 mph N/A   Mostly Cloudy
1:53 PM 66.9 °F 50.0 °F 54% 29.96 in 10.0 mi NW 12.7 mph - N/A   Mostly Cloudy
2:53 PM 71.1 °F 48.9 °F 45% 29.95 in 10.0 mi West 13.8 mph - N/A   Clear
3:53 PM 71.1 °F 48.9 °F 45% 29.96 in 10.0 mi NW 17.3 mph 24.2 mph N/A   Mostly Cloudy
4:53 PM 69.1 °F 48.9 °F 49% 29.97 in 10.0 mi NW 17.3 mph - N/A   Mostly Cloudy
5:53 PM 69.1 °F 48.0 °F 47% 29.97 in 10.0 mi NW 10.4 mph - N/A   Clear
6:53 PM 68.0 °F 48.0 °F 49% 29.98 in 10.0 mi WNW 10.4 mph - N/A   Partly Cloudy
7:53 PM 64.0 °F 51.1 °F 63% 29.99 in 10.0 mi NW 6.9 mph - N/A   Clear
8:53 PM 61.0 °F 52.0 °F 72% 30.00 in 10.0 mi Calm Calm - N/A   Clear
9:53 PM 55.0 °F 52.0 °F 89% 30.01 in 10.0 mi Calm Calm - N/A   Clear
10:53 PM 54.0 °F 51.1 °F 90% 30.01 in 10.0 mi Calm Calm - N/A   Clear
11:39 PM 52.0 °F 51.1 °F 97% 30.04 in 2.5 mi Calm Calm - N/A   Clear
11:46 PM 52.0 °F 51.1 °F 97% 30.04 in 10.0 mi Calm Calm - N/A   Clear
11:53 PM 51.1 °F 50.0 °F 96% 30.03 in 10.0 mi Calm Calm - N/A   Clear